Regional Weather Roundup
Issued by NWS

Home | Current Version | Previous Version | Text Only | Print | Product List | Glossary Off
Versions: 1 2 3 4 5 6 7 8 9 10 11 12 13 14 15 16 17 18 19 20 21 22 23 24 25 26 27 28 29 30 31 32 33 34 35 36 37 38 39 40 41 42 43 44 45 46 47 48 49 50

000
ASUS43 KDTX 180610
RWRMI
MICHIGAN HOURLY REGIONAL WEATHER ROUNDUP
NATIONAL WEATHER SERVICE DETROIT/PONTIAC MI
ISSUED BY NATIONAL WEATHER SERVICE GRAND RAPIDS MI
200 AM EDT FRI AUG 18 2017

NOTE: "FAIR" INDICATES FEW OR NO CLOUDS BELOW 12,000 FEET WITH NO
SIGNIFICANT WEATHER AND/OR OBSTRUCTION TO VISIBILITY.

MIZ047>049-052>055-059>063-066>070-074>076-081>083-180700-
SOUTHEAST LOWER MICHIGAN

CITY           SKY/WX    TMP DP  RH WIND       PRES   REMARKS
ADRIAN         CLEAR     69  66  90 W6        29.76F
6HR MIN TEMP:  69; 6HR MAX TEMP:  79;

ALMA           CLOUDY    69  66  92 SW7       29.67F
ANN ARBOR      CLEAR     70  66  87 S8        29.74F
BAD AXE        CLOUDY    70  65  83 SW8       29.67F
DETROIT CITY   CLEAR     73  67  81 W12G21    29.73F
6HR MIN TEMP:  73; 6HR MAX TEMP:  80;

DETROIT        PTCLDY    73  67  81 SW14      29.74F
6HR MIN TEMP:  73; 6HR MAX TEMP:  81;

FLINT          CLOUDY    72  66  81 SW9       29.70F
6HR MIN TEMP:  71; 6HR MAX TEMP:  73;

GROSSE ILE     CLEAR     73  66  80 W7        29.73F
6HR MIN TEMP:  73; 6HR MAX TEMP:  80; 6HR PCP:  0.03;

HILLSDALE      PTCLDY    70  64  83 SW8       29.76F
HOWELL         MOCLDY    72  65  80 SW8       29.72F
6HR MIN TEMP:  72; 6HR MAX TEMP:  79;


CITY           SKY/WX    TMP DP  RH WIND       PRES   REMARKS
JACKSON          N/A     72  66  81 SW12      29.73F
6HR MIN TEMP:  72; 6HR MAX TEMP:  79;

LANSING        MOCLDY    71  64  78 SW12      29.71F
6HR MIN TEMP:  71; 6HR MAX TEMP:  79; 6HR PCP: TRACE;

MASON          PTCLDY    72  65  80 S3        29.72F
MONROE         CLEAR     70  66  86 SW6       29.74F
6HR MIN TEMP:  70; 6HR MAX TEMP:  81;

MT. CLEMENS    CLEAR     73  68  83 SW9       29.70F
6HR MIN TEMP:  73; 6HR MAX TEMP:  78;

PONTIAC        CLEAR     72  66  81 SW8       29.71F
6HR MIN TEMP:  72; 6HR MAX TEMP:  79;

PORT HOPE        N/A     71  65  81 SW7       29.64S
6HR MIN TEMP:  70; 6HR MAX TEMP:  74; 6HR PCP:  0.25;

PORT HURON     CLEAR     72  66  83 SW3       29.71S
TRI CITIES     MOCLDY    71  67  87 SW15      29.67F
6HR MIN TEMP:  70; 6HR MAX TEMP:  79;

YPSILANTI      CLEAR     73  68  84 SW9       29.74F
6HR MIN TEMP:  73; 6HR MAX TEMP:  82;

$$
MIZ043>046-050>051-056>058-064>065-071>073-077>080-180700-
SOUTHWEST LOWER MICHIGAN

CITY           SKY/WX    TMP DP  RH WIND       PRES   REMARKS
BATTLE CREEK   CLOUDY    73  66  78 W12       29.74F
6HR MIN TEMP:  73; 6HR MAX TEMP:  79;

BENTON HARBOR  PTCLDY    73  62  68 W21G29    29.76S
6HR MIN TEMP:  72; 6HR MAX TEMP:  79;

BIG RAPIDS     CLOUDY    67  64  89 W9        29.66F
6HR MIN TEMP:  67; 6HR MAX TEMP:  71;

COLDWATER      MOCLDY    72  67  85 SW10G16   29.76S
6HR MIN TEMP:  70; 6HR MAX TEMP:  78;

HOLLAND        CLOUDY    71  63  75 W12G24    29.73R
6HR MIN TEMP:  71; 6HR MAX TEMP:  77; 6HR PCP:  0.03;

GRAND RAPIDS   CLOUDY    70  67  90 W18G24    29.70F
6HR MIN TEMP:  70; 6HR MAX TEMP:  77; 6HR PCP:  0.16;

KALAMAZOO      MOCLDY    74  60  61 W17G24    29.74F
6HR MIN TEMP:  74; 6HR MAX TEMP:  80; 6HR PCP: TRACE;

MARSHALL       MOCLDY    72  68  88 SW10      29.73F
6HR MIN TEMP:  71; 6HR MAX TEMP:  78;

MOUNT PLEASANT MOCLDY    71  64  78 SW10      29.65F
6HR MIN TEMP:  71; 6HR MAX TEMP:  78;

MUSKEGON       LGT RAIN  68  65  90 W10       29.69S
6HR MIN TEMP:  68; 6HR MAX TEMP:  76; 6HR PCP:  0.01;

STURGIS        PTCLDY    71  66  84 W10G17    29.76S
6HR MIN TEMP:  70; 6HR MAX TEMP:  77;

$$
MIZ016>042-180700-
NORTHERN LOWER MICHIGAN

CITY           SKY/WX    TMP DP  RH WIND       PRES   REMARKS
ALPENA         CLOUDY    69  68  96 S8        29.60S
6HR MIN TEMP:  69; 6HR MAX TEMP:  72; 6HR PCP:  0.64;

BEAVER ISLAND  CLOUDY    68  68  98 SW9       29.52F
6HR MIN TEMP:  68; 6HR MAX TEMP:  73;

BELLAIRE       CLOUDY    69  65  89 SW9       29.57F
6HR MIN TEMP:  69; 6HR MAX TEMP:  75;

CADILLAC       CLOUDY    68  64  88 SW12      29.63F
CHARLEVOIX     RAIN      69  69 100 SW9       29.57F
GAYLORD        CLOUDY    67  64  90 SW12      29.59F
6HR MIN TEMP:  67; 6HR MAX TEMP:  73; 6HR PCP: TRACE;

HOUGHTON LAKE  CLOUDY    68  65  90 SW12G21   29.63F
6HR MIN TEMP:  69; 6HR MAX TEMP:  73;

MANISTEE       CLOUDY    67  65  93 W14G22    29.62S
OSCODA         CLEAR     69  67  93 SW9G17    29.61F
6HR MIN TEMP:  69; 6HR MAX TEMP:  75;

PELLSTON       CLOUDY    68  67  96 S5        29.54F
6HR MIN TEMP:  68; 6HR MAX TEMP:  72; 6HR PCP:  0.08;

TRAVERSE CITY  CLOUDY    68  65  90 SW8       29.57S
6HR MIN TEMP:  68; 6HR MAX TEMP:  76; 6HR PCP:  0.04;

LUDINGTON      CLOUDY    67  63  85 W10G21    29.65S
6HR MIN TEMP:  67; 6HR MAX TEMP:  72;

$$
MIZ007>008-015-180700-
EASTERN UPPER MICHIGAN

CITY           SKY/WX    TMP DP  RH WIND       PRES   REMARKS
KINROSS        CLOUDY    66  66 100 SE5       29.54F FOG
6HR MIN TEMP:  65; 6HR MAX TEMP:  66;

MACKINAC ISLAN CLOUDY    68  68 100 S6        29.54F
6HR MIN TEMP:  67; 6HR MAX TEMP:  69; 6HR PCP:  0.16;

NEWBERRY       LGT RAIN  66  65  97 CALM      29.52F
6HR MIN TEMP:  66; 6HR MAX TEMP:  69; 6HR PCP:  0.20;

S. S. MARIE    HVY RAIN  66  64  93 E6        29.54F FOG
6HR MIN TEMP:  66; 6HR MAX TEMP:  67; 6HR PCP:  0.59;

$$
MIZ004>006-011>014-085-180700-
CENTRAL UPPER MICHIGAN

CITY           SKY/WX    TMP DP  RH WIND       PRES   REMARKS
MANISTIQUE     CLOUDY    66  60  80 CALM      29.51S HAZE
6HR MIN TEMP:  66; 6HR MAX TEMP:  68; 6HR PCP:  0.05;

ESCANABA       CLOUDY    65  62  90 W14       29.55R
6HR MIN TEMP:  65; 6HR MAX TEMP:  71; 6HR PCP: TRACE;

MENOMINEE      CLOUDY    64  61  88 NW7       29.61R
6HR MIN TEMP:  65; 6HR MAX TEMP:  73; 6HR PCP: TRACE;

SAWYER-GWINN   CLOUDY    61  60  97 W7        29.57S
6HR MIN TEMP:  61; 6HR MAX TEMP:  66; 6HR PCP:  0.07;

$$
MIZ001>003-009>011-084-180700-
WESTERN UPPER MICHIGAN

CITY           SKY/WX    TMP DP  RH WIND       PRES   REMARKS
IRON MOUNTAIN  CLOUDY    62  57  83 NW10      29.59F
6HR MIN TEMP:  61; 6HR MAX TEMP:  69; 6HR PCP:  0.02;

HOUGHTON       CLOUDY    57  56  96 NW17      29.59R FOG
6HR MIN TEMP:  57; 6HR MAX TEMP:  67;

COPPER HARBOR    N/A     57  56  96 N12       29.57R
6HR MIN TEMP:  54; 6HR MAX TEMP:  64; 6HR PCP:  0.03;

IRONWOOD       CLOUDY    61  59  93 NW10      29.72S
6HR MIN TEMP:  59; 6HR MAX TEMP:  61; 6HR PCP:  0.19;

$$

ABBREVIATIONS USED IN REMARKS
   TC - TEMPERATURE IN CELSIUS
  WCI - WIND CHILL INDEX
   HX - HEAT INDEX
  VSB - VISIBILITY





USA.gov is the U.S. government's official web portal to all federal, state and local government web resources and services.